Previsão horária em Allan

Hoje, 25 Junho, Sexta-feira

Tempo Temperatura Precipitação Vento Pressão Humidade
00:00 +15°C° 0 mm 2 m/s 713 mmHg 71%
01:00 +15°C° 0 mm 2 m/s 713 mmHg 72%
02:00 +15°C° 0 mm 2 m/s 713 mmHg 72%
03:00 +15°C° 0 mm 2 m/s 713 mmHg 73%
04:00 +15°C° 0 mm 2 m/s 713 mmHg 74%
05:00 +15°C° 0 mm 2 m/s 713 mmHg 74%
06:00 +17°C° 0 mm 3 m/s 713 mmHg 68%
07:00 +19°C° 0 mm 3 m/s 713 mmHg 61%
08:00 +21°C° 0 mm 4 m/s 713 mmHg 55%
09:00 +23°C° 0 mm 4 m/s 713 mmHg 49%
10:00 +25°C° 0 mm 5 m/s 713 mmHg 43%
11:00 +27°C° 0 mm 5 m/s 712 mmHg 38%
12:00 +27°C° 0 mm 5 m/s 712 mmHg 38%
13:00 +27°C° 0 mm 6 m/s 712 mmHg 38%
14:00 +27°C° 0 mm 6 m/s 711 mmHg 37%
15:00 +27°C° 0 mm 6 m/s 711 mmHg 39%
16:00 +27°C° 0 mm 5 m/s 711 mmHg 41%
17:00 +26°C° 0 mm 4 m/s 711 mmHg 43%
18:00 +25°C° 0.1 mm 4 m/s 711 mmHg 51%
19:00 +22°C° 0.1 mm 3 m/s 711 mmHg 60%
20:00 +20°C° 0.1 mm 2 m/s 711 mmHg 68%
21:00 +19°C° 0.7 mm 2 m/s 711 mmHg 74%
22:00 +18°C° 0.7 mm 2 m/s 712 mmHg 81%
23:00 +17°C° 0.7 mm 2 m/s 712 mmHg 87%

Amanhã, 26 Junho, Sábado

Tempo Temperatura Precipitação Vento Pressão Humidade
00:00 +17°C° 0.3 mm 2 m/s 712 mmHg 89%
01:00 +16°C° 0.3 mm 2 m/s 712 mmHg 91%
02:00 +16°C° 0.3 mm 3 m/s 712 mmHg 92%
03:00 +16°C° 0 mm 3 m/s 712 mmHg 92%
04:00 +16°C° 0 mm 3 m/s 713 mmHg 91%
05:00 +16°C° 0 mm 2 m/s 713 mmHg 91%
06:00 +17°C° 0 mm 3 m/s 714 mmHg 84%
07:00 +19°C° 0 mm 3 m/s 714 mmHg 78%
08:00 +20°C° 0 mm 3 m/s 714 mmHg 72%
09:00 +22°C° 0 mm 3 m/s 715 mmHg 65%
10:00 +24°C° 0 mm 3 m/s 715 mmHg 58%
11:00 +26°C° 0 mm 4 m/s 715 mmHg 50%
12:00 +27°C° 0 mm 4 m/s 715 mmHg 46%
13:00 +27°C° 0 mm 4 m/s 715 mmHg 43%
14:00 +28°C° 0 mm 4 m/s 715 mmHg 39%
15:00 +28°C° 0 mm 4 m/s 715 mmHg 38%
16:00 +28°C° 0 mm 4 m/s 715 mmHg 38%
17:00 +28°C° 0 mm 4 m/s 715 mmHg 37%
18:00 +25°C° 0.2 mm 3 m/s 715 mmHg 51%
19:00 +22°C° 0.2 mm 3 m/s 715 mmHg 64%
20:00 +20°C° 0.2 mm 3 m/s 715 mmHg 77%
21:00 +19°C° 0.4 mm 2 m/s 715 mmHg 79%
22:00 +19°C° 0.4 mm 2 m/s 715 mmHg 80%
23:00 +18°C° 0.4 mm 2 m/s 715 mmHg 82%

Depois de amanhã, 27 Junho, Domingo

Tempo Temperatura Precipitação Vento Pressão Humidade
00:00 +18°C° 0 mm 2 m/s 715 mmHg 84%
01:00 +17°C° 0 mm 2 m/s 715 mmHg 86%
02:00 +17°C° 0 mm 2 m/s 715 mmHg 89%
03:00 +16°C° 0 mm 2 m/s 716 mmHg 90%
04:00 +16°C° 0 mm 2 m/s 716 mmHg 91%
05:00 +16°C° 0 mm 2 m/s 716 mmHg 92%
06:00 +18°C° 0 mm 3 m/s 717 mmHg 83%
07:00 +20°C° 0 mm 3 m/s 717 mmHg 73%
08:00 +22°C° 0 mm 4 m/s 717 mmHg 64%
09:00 +23°C° 0 mm 4 m/s 718 mmHg 57%
10:00 +26°C° 0 mm 4 m/s 718 mmHg 51%
11:00 +27°C° 0 mm 4 m/s 718 mmHg 44%
12:00 +27°C° 0 mm 4 m/s 718 mmHg 42%
13:00 +28°C° 0 mm 5 m/s 718 mmHg 40%
14:00 +28°C° 0 mm 5 m/s 718 mmHg 37%
15:00 +28°C° 0 mm 4 m/s 718 mmHg 37%
16:00 +28°C° 0 mm 3 m/s 718 mmHg 38%
17:00 +28°C° 0 mm 3 m/s 718 mmHg 38%
18:00 +26°C° 0 mm 2 m/s 718 mmHg 45%
19:00 +25°C° 0 mm 1 m/s 718 mmHg 51%
20:00 +23°C° 0 mm 1 m/s 717 mmHg 58%
21:00 +22°C° 0 mm 1 m/s 717 mmHg 59%
22:00 +20°C° 0 mm 2 m/s 717 mmHg 61%
23:00 +19°C° 0 mm 3 m/s 717 mmHg 62%

28 Junho, Segunda-feira

Tempo Temperatura Precipitação Vento Pressão Humidade
00:00 +19°C° 0 mm 3 m/s 717 mmHg 64%
01:00 +18°C° 0 mm 3 m/s 717 mmHg 65%
02:00 +18°C° 0 mm 3 m/s 717 mmHg 66%
03:00 +18°C° 0 mm 3 m/s 718 mmHg 68%
04:00 +18°C° 0 mm 3 m/s 718 mmHg 69%
05:00 +18°C° 0 mm 2 m/s 718 mmHg 70%
06:00 +20°C° 0 mm 3 m/s 718 mmHg 64%
07:00 +22°C° 0 mm 3 m/s 718 mmHg 57%
08:00 +25°C° 0 mm 3 m/s 719 mmHg 50%
09:00 +27°C° 0 mm 3 m/s 719 mmHg 46%
10:00 +28°C° 0 mm 3 m/s 719 mmHg 42%
11:00 +29°C° 0 mm 3 m/s 719 mmHg 38%
12:00 +30°C° 0 mm 2 m/s 718 mmHg 36%
13:00 +31°C° 0 mm 2 m/s 718 mmHg 35%
14:00 +31°C° 0 mm 2 m/s 718 mmHg 33%
15:00 +31°C° 0 mm 2 m/s 718 mmHg 33%
16:00 +31°C° 0 mm 2 m/s 718 mmHg 33%
17:00 +31°C° 0 mm 2 m/s 717 mmHg 33%
18:00 +29°C° 0 mm 2 m/s 717 mmHg 40%
19:00 +27°C° 0 mm 3 m/s 717 mmHg 47%
20:00 +25°C° 0 mm 3 m/s 716 mmHg 54%
21:00 +24°C° 0 mm 3 m/s 717 mmHg 54%
22:00 +22°C° 0 mm 3 m/s 717 mmHg 54%
23:00 +21°C° 0 mm 3 m/s 717 mmHg 54%

29 Junho, Terça-feira

Tempo Temperatura Precipitação Vento Pressão Humidade
00:00 +21°C° 0 mm 3 m/s 717 mmHg 56%
01:00 +20°C° 0 mm 3 m/s 716 mmHg 57%
02:00 +20°C° 0 mm 3 m/s 716 mmHg 58%
03:00 +19°C° 0 mm 3 m/s 716 mmHg 60%
04:00 +19°C° 0 mm 3 m/s 716 mmHg 62%
05:00 +19°C° 0 mm 3 m/s 717 mmHg 64%
06:00 +21°C° 0 mm 3 m/s 717 mmHg 58%
07:00 +25°C° 0 mm 3 m/s 717 mmHg 52%
08:00 +27°C° 0 mm 3 m/s 717 mmHg 45%
09:00 +28°C° 0 mm 3 m/s 717 mmHg 42%
10:00 +29°C° 0 mm 3 m/s 717 mmHg 38%
11:00 +31°C° 0 mm 3 m/s 717 mmHg 34%
12:00 +31°C° 0 mm 3 m/s 717 mmHg 34%
13:00 +33°C° 0 mm 3 m/s 716 mmHg 33%
14:00 +33°C° 0 mm 3 m/s 716 mmHg 32%
15:00 +33°C° 0 mm 3 m/s 716 mmHg 33%
16:00 +33°C° 0 mm 3 m/s 716 mmHg 34%
17:00 +31°C° 0 mm 3 m/s 715 mmHg 34%
18:00 +29°C° 0 mm 3 m/s 715 mmHg 41%
19:00 +28°C° 0 mm 3 m/s 715 mmHg 48%
20:00 +26°C° 0 mm 3 m/s 715 mmHg 55%
21:00 +25°C° 0 mm 3 m/s 715 mmHg 56%
22:00 +24°C° 0 mm 3 m/s 714 mmHg 58%
23:00 +22°C° 0 mm 3 m/s 714 mmHg 60%

30 Junho, Quarta-feira

Tempo Temperatura Precipitação Vento Pressão Humidade
00:00 +21°C° 0 mm 3 m/s 714 mmHg 61%
01:00 +21°C° 0 mm 3 m/s 714 mmHg 63%
02:00 +20°C° 0 mm 3 m/s 714 mmHg 64%
03:00 +20°C° 0 mm 3 m/s 714 mmHg 64%
04:00 +20°C° 0 mm 3 m/s 714 mmHg 65%
05:00 +20°C° 0 mm 3 m/s 714 mmHg 66%
06:00 +22°C° 0 mm 3 m/s 714 mmHg 59%
07:00 +25°C° 0 mm 3 m/s 715 mmHg 53%
08:00 +28°C° 0 mm 3 m/s 715 mmHg 47%
09:00 +29°C° 0 mm 4 m/s 715 mmHg 43%
10:00 +30°C° 0 mm 4 m/s 715 mmHg 39%
11:00 +33°C° 0 mm 5 m/s 715 mmHg 35%
12:00 +33°C° 0 mm 5 m/s 715 mmHg 34%
13:00 +34°C° 0 mm 5 m/s 715 mmHg 33%
14:00 +34°C° 0 mm 5 m/s 715 mmHg 32%
15:00 +34°C° 0 mm 5 m/s 715 mmHg 33%
16:00 +34°C° 0 mm 4 m/s 714 mmHg 33%
17:00 +34°C° 0 mm 4 m/s 714 mmHg 34%
18:00 +32°C° 0 mm 4 m/s 714 mmHg 41%
19:00 +29°C° 0 mm 3 m/s 714 mmHg 47%
20:00 +27°C° 0 mm 2 m/s 714 mmHg 54%
21:00 +26°C° 0 mm 3 m/s 714 mmHg 58%
22:00 +24°C° 0 mm 3 m/s 715 mmHg 62%
23:00 +22°C° 0 mm 3 m/s 715 mmHg 66%
Mostrar mais